This is the latest recevied weather packets stored in our database for station/object F1AGU-13. If no packets are shown the sender has not sent any weather packets the latest 10 day(s).
| Time | Temp. | Humidity | Pressure | Rain* | Wind** | Luminosity | Snow |
|---|---|---|---|---|---|---|---|
| 1787404816 | 20.56° C | 55% | 1021.1 hPa | 0 mm | - | - | - |
| 1787404216 | 20° C | 58% | 1021.3 hPa | 0 mm | - | - | - |
| 1787403616 | 20° C | 54% | 1021.3 hPa | 0 mm | - | - | - |
| 1787403016 | 20° C | 58% | 1021.3 hPa | 0 mm | - | - | - |
| 1787402416 | 20° C | 57% | 1021.2 hPa | 0 mm | - | - | - |
| 1787401815 | 20° C | 57% | 1021.2 hPa | 0 mm | - | - | - |
| 1787401215 | 20° C | 61% | 1021.3 hPa | 0 mm | - | - | - |
| 1787400615 | 20° C | 56% | 1021.2 hPa | 0 mm | - | - | - |
| 1787400015 | 19.44° C | 58% | 1020.9 hPa | 0 mm | - | - | - |
| 1787399415 | 19.44° C | 62% | 1021 hPa | 0 mm | - | - | - |
| 1787398815 | 19.44° C | 60% | 1021 hPa | 0 mm | - | - | - |
| 1787398217 | 18.89° C | 64% | 1021.1 hPa | 0 mm | - | - | - |
| 1787397617 | 18.89° C | 62% | 1021.1 hPa | 0 mm | - | - | - |
| 1787397017 | 18.89° C | 61% | 1021 hPa | 0 mm | - | - | - |
| 1787396417 | 18.33° C | 65% | 1021.1 hPa | 0 mm | - | - | - |
| 1787395817 | 18.33° C | 64% | 1021.2 hPa | 0 mm | - | - | - |
| 1787395217 | 17.78° C | 66% | 1021 hPa | 0 mm | - | - | - |
| 1787394616 | 17.22° C | 68% | 1021 hPa | 0 mm | - | - | - |
| 1787394050 | 17.22° C | 68% | 1020.8 hPa | 0 mm | - | - | - |
| 1787393417 | 16.67° C | 70% | 1020.8 hPa | 0 mm | - | - | - |
| 1787392817 | 16.11° C | 70% | 1021 hPa | 0 mm | - | - | - |
| 1787392217 | 16.11° C | 71% | 1021.1 hPa | 0 mm | - | - | - |
| 1787391617 | 16.11° C | 75% | 1021.2 hPa | 0 mm | - | - | - |
| 1787391017 | 16.11° C | 74% | 1021.2 hPa | 0 mm | - | - | - |
| 1787390417 | 15.56° C | 73% | 1021.3 hPa | 0 mm | - | - | - |
* Rain latest hour (hover to see other rain measurements)
** Current wind speed in m/s (hover to see current wind gust speed)